Torna al catalogo

FENGYUN 1C DEB

AttivoPO
NORAD 31666·DEBRIS·🇨🇳 China

Lanciato May 10, 1999 da Taiyuan Satellite Launch Center

Loading…

Prossimi Passaggi (prossime 24 ore)

TLE

AggiornatoSource: Space-Track

Epoca: Sep 14, 2026, 10:43 UTC

1 31666U 99025CBY 26257.44698735  .00025090  00000-0  18804-2 0  9994
2 31666  98.6655  79.1749 0014722 337.4016  22.6556 15.02591363 13544

Traccia FENGYUN 1C DEB in tempo reale con AllMySat

Download on the App Store